owner,sensor,date,latitude,longitude,vertical_datum,wind_speed,wind_to_direction,wind_speed_of_gust,qcFlag 
TCOON,ioos:station:TCOON:003:1,2016-01-01T00:00:00Z,26.8015,-97.4706,0.0,9.9,359.0,11.2,'11111222,11111222,11111222' 
TCOON,ioos:station:TCOON:003:1,2016-01-01T00:06:00Z,26.8015,-97.4706,0.0,9.5,352.0,11.1,'11111222,11111222,11111222' 
TCOON,ioos:station:TCOON:003:1,2016-01-01T00:12:00Z,26.8015,-97.4706,0.0,9.8,354.0,11.4,'11111222,11111222,11111222' 
TCOON,ioos:station:TCOON:003:1,2016-01-01T00:18:00Z,26.8015,-97.4706,0.0,9.8,354.0,11.4,'1111122,1111122,1111122' 
TCOON,ioos:station:TCOON:003:1,2016-01-01T00:24:00Z,26.8015,-97.4706,0.0,10.2,355.0,11.7,'11111222,11111222,11111222' 
TCOON,ioos:station:TCOON:003:1,2016-01-01T00:30:00Z,26.8015,-97.4706,0.0,9.5,352.0,11.6,'11111222,11111222,11111222' 
TCOON,ioos:station:TCOON:003:1,2016-01-01T00:36:00Z,26.8015,-97.4706,0.0,9.0,350.0,11.0,'11111222,11111222,11111222' 
TCOON,ioos:station:TCOON:003:1,2016-01-01T00:42:00Z,26.8015,-97.4706,0.0,8.7,351.0,10.0,'11111222,11111222,11111222' 
TCOON,ioos:station:TCOON:003:1,2016-01-01T00:48:00Z,26.8015,-97.4706,0.0,9.4,348.0,10.8,'11111222,11111222,11111222' 
TCOON,ioos:station:TCOON:003:1,2016-01-01T00:54:00Z,26.8015,-97.4706,0.0,8.2,350.0,10.5,'11111222,11111222,11111222' 
TCOON,ioos:station:TCOON:003:1,2016-01-01T01:00:00Z,26.8015,-97.4706,0.0,9.5,357.0,10.9,'11111222,11111222,11111222' 
TCOON,ioos:station:TCOON:003:1,2016-01-01T01:06:00Z,26.8015,-97.4706,0.0,9.9,359.0,11.6,'11111222,11111222,11111222' 
TCOON,ioos:station:TCOON:003:1,2016-01-01T01:12:00Z,26.8015,-97.4706,0.0,9.6,354.0,10.9,'11111222,11111222,11111222' 
TCOON,ioos:station:TCOON:003:1,2016-01-01T01:18:00Z,26.8015,-97.4706,0.0,9.6,354.0,10.9,'1111122,1111122,1111122' 
TCOON,ioos:station:TCOON:003:1,2016-01-01T01:24:00Z,26.8015,-97.4706,0.0,10.4,357.0,11.5,'11111222,11111222,11111222' 
TCOON,ioos:station:TCOON:003:1,2016-01-01T01:30:00Z,26.8015,-97.4706,0.0,9.6,355.0,11.1,'11111222,11111222,11111222' 
TCOON,ioos:station:TCOON:003:1,2016-01-01T01:36:00Z,26.8015,-97.4706,0.0,9.8,353.0,12.2,'11111222,11111222,11111222' 
TCOON,ioos:station:TCOON:003:1,2016-01-01T01:42:00Z,26.8015,-97.4706,0.0,9.1,354.0,11.7,'11111222,11111222,11111222' 
TCOON,ioos:station:TCOON:003:1,2016-01-01T01:48:00Z,26.8015,-97.4706,0.0,9.7,351.0,11.5,'11111222,11111222,11111222' 
TCOON,ioos:station:TCOON:003:1,2016-01-01T01:54:00Z,26.8015,-97.4706,0.0,9.5,349.0,11.6,'11111222,11111222,11111222' 
TCOON,ioos:station:TCOON:003:1,2016-01-01T02:00:00Z,26.8015,-97.4706,0.0,9.8,348.0,11.2,'11111222,11111222,11111222' 
TCOON,ioos:station:TCOON:003:1,2016-01-01T02:06:00Z,26.8015,-97.4706,0.0,10.1,349.0,11.7,'11111222,11111222,11111222' 
TCOON,ioos:station:TCOON:003:1,2016-01-01T02:12:00Z,26.8015,-97.4706,0.0,10.1,348.0,11.8,'11111222,11111222,11111222' 
TCOON,ioos:station:TCOON:003:1,2016-01-01T02:18:00Z,26.8015,-97.4706,0.0,10.1,348.0,11.8,'1111122,1111122,1111122' 
TCOON,ioos:station:TCOON:003:1,2016-01-01T02:24:00Z,26.8015,-97.4706,0.0,10.1,352.0,11.6,'11111222,11111222,11111222' 
TCOON,ioos:station:TCOON:003:1,2016-01-01T02:30:00Z,26.8015,-97.4706,0.0,9.3,352.0,11.2,'11111222,11111222,11111222' 
TCOON,ioos:station:TCOON:003:1,2016-01-01T02:36:00Z,26.8015,-97.4706,0.0,9.8,353.0,11.3,'11111222,11111222,11111222' 
TCOON,ioos:station:TCOON:003:1,2016-01-01T02:42:00Z,26.8015,-97.4706,0.0,9.9,356.0,11.3,'11111222,11111222,11111222' 
TCOON,ioos:station:TCOON:003:1,2016-01-01T02:48:00Z,26.8015,-97.4706,0.0,11.0,353.0,12.8,'11111222,11111222,11111222' 
TCOON,ioos:station:TCOON:003:1,2016-01-01T02:54:00Z,26.8015,-97.4706,0.0,9.7,354.0,11.9,'11111222,11111222,11111222' 
TCOON,ioos:station:TCOON:003:1,2016-01-01T03:00:00Z,26.8015,-97.4706,0.0,10.7,354.0,12.0,'11111222,11111222,11111222' 
TCOON,ioos:station:TCOON:003:1,2016-01-01T03:06:00Z,26.8015,-97.4706,0.0,10.4,357.0,12.1,'11111222,11111222,11111222' 
TCOON,ioos:station:TCOON:003:1,2016-01-01T03:12:00Z,26.8015,-97.4706,0.0,10.1,358.0,11.9,'11111222,11111222,11111222' 
TCOON,ioos:station:TCOON:003:1,2016-01-01T03:18:00Z,26.8015,-97.4706,0.0,10.1,358.0,11.9,'1111122,1111122,1111122' 
TCOON,ioos:station:TCOON:003:1,2016-01-01T03:24:00Z,26.8015,-97.4706,0.0,9.8,5.0,11.3,'11111222,11111222,11111222' 
TCOON,ioos:station:TCOON:003:1,2016-01-01T03:30:00Z,26.8015,-97.4706,0.0,10.0,3.0,11.5,'11111222,11111222,11111222' 
TCOON,ioos:station:TCOON:003:1,2016-01-01T03:36:00Z,26.8015,-97.4706,0.0,10.1,3.0,11.3,'11111222,11111222,11111222' 
TCOON,ioos:station:TCOON:003:1,2016-01-01T03:42:00Z,26.8015,-97.4706,0.0,10.6,3.0,12.2,'11111222,11111222,11111222' 
TCOON,ioos:station:TCOON:003:1,2016-01-01T03:48:00Z,26.8015,-97.4706,0.0,10.7,4.0,12.1,'11111222,11111222,11111222' 
TCOON,ioos:station:TCOON:003:1,2016-01-01T03:54:00Z,26.8015,-97.4706,0.0,9.3,3.0,12.5,'11111222,11111222,11111222' 
TCOON,ioos:station:TCOON:003:1,2016-01-01T04:00:00Z,26.8015,-97.4706,0.0,10.2,4.0,13.4,'11111222,11111222,11111222' 
TCOON,ioos:station:TCOON:003:1,2016-01-01T04:06:00Z,26.8015,-97.4706,0.0,10.4,5.0,12.9,'11111222,11111222,11111222' 
TCOON,ioos:station:TCOON:003:1,2016-01-01T04:12:00Z,26.8015,-97.4706,0.0,10.6,5.0,12.8,'11111222,11111222,11111222' 
TCOON,ioos:station:TCOON:003:1,2016-01-01T04:18:00Z,26.8015,-97.4706,0.0,10.7,6.0,12.7,'11111222,11111222,11111222' 
TCOON,ioos:station:TCOON:003:1,2016-01-01T04:24:00Z,26.8015,-97.4706,0.0,10.7,6.0,12.7,'1111122,1111122,1111122' 
TCOON,ioos:station:TCOON:003:1,2016-01-01T04:30:00Z,26.8015,-97.4706,0.0,11.5,6.0,14.0,'11111222,11111222,11111222' 
TCOON,ioos:station:TCOON:003:1,2016-01-01T04:36:00Z,26.8015,-97.4706,0.0,10.0,6.0,12.7,'11111222,11111222,11111222' 
TCOON,ioos:station:TCOON:003:1,2016-01-01T04:42:00Z,26.8015,-97.4706,0.0,8.9,8.0,11.7,'11111222,11111222,11111222' 
TCOON,ioos:station:TCOON:003:1,2016-01-01T04:48:00Z,26.8015,-97.4706,0.0,8.6,5.0,10.7,'11111222,11111222,11111222' 
TCOON,ioos:station:TCOON:003:1,2016-01-01T04:54:00Z,26.8015,-97.4706,0.0,8.9,6.0,10.5,'11111222,11111222,11111222' 
TCOON,ioos:station:TCOON:003:1,2016-01-01T05:00:00Z,26.8015,-97.4706,0.0,8.5,11.0,10.5,'11111222,11111222,11111222' 
TCOON,ioos:station:TCOON:003:1,2016-01-01T05:06:00Z,26.8015,-97.4706,0.0,9.1,10.0,10.9,'11111222,11111222,11111222' 
TCOON,ioos:station:TCOON:003:1,2016-01-01T05:12:00Z,26.8015,-97.4706,0.0,9.8,9.0,12.6,'11111222,11111222,11111222' 
TCOON,ioos:station:TCOON:003:1,2016-01-01T05:18:00Z,26.8015,-97.4706,0.0,9.5,9.0,11.7,'1111122,1111122,1111122' 
TCOON,ioos:station:TCOON:003:1,2016-01-01T05:24:00Z,26.8015,-97.4706,0.0,9.2,12.0,11.9,'11111222,11111222,11111222' 
TCOON,ioos:station:TCOON:003:1,2016-01-01T05:30:00Z,26.8015,-97.4706,0.0,9.2,15.0,11.9,'11111222,11111222,11111222' 
TCOON,ioos:station:TCOON:003:1,2016-01-01T05:36:00Z,26.8015,-97.4706,0.0,9.0,16.0,10.7,'11111222,11111222,11111222' 
TCOON,ioos:station:TCOON:003:1,2016-01-01T05:42:00Z,26.8015,-97.4706,0.0,8.7,13.0,11.0,'11111222,11111222,11111222' 
TCOON,ioos:station:TCOON:003:1,2016-01-01T05:48:00Z,26.8015,-97.4706,0.0,7.9,10.0,10.3,'11111222,11111222,11111222' 
TCOON,ioos:station:TCOON:003:1,2016-01-01T05:54:00Z,26.8015,-97.4706,0.0,8.2,13.0,10.4,'11111222,11111222,11111222' 
TCOON,ioos:station:TCOON:003:1,2016-01-01T06:00:00Z,26.8015,-97.4706,0.0,8.5,11.0,10.1,'11111222,11111222,11111222' 
TCOON,ioos:station:TCOON:003:1,2016-01-01T06:06:00Z,26.8015,-97.4706,0.0,8.6,9.0,11.1,'11111222,11111222,11111222' 
TCOON,ioos:station:TCOON:003:1,2016-01-01T06:12:00Z,26.8015,-97.4706,0.0,8.7,10.0,10.6,'11111222,11111222,11111222' 
TCOON,ioos:station:TCOON:003:1,2016-01-01T06:18:00Z,26.8015,-97.4706,0.0,8.7,10.0,10.6,'1111122,1111122,1111122' 
TCOON,ioos:station:TCOON:003:1,2016-01-01T06:24:00Z,26.8015,-97.4706,0.0,8.1,12.0,9.5,'11111222,11111222,11111222' 
TCOON,ioos:station:TCOON:003:1,2016-01-01T06:30:00Z,26.8015,-97.4706,0.0,7.3,355.0,9.4,'11111222,11111222,11111222' 
TCOON,ioos:station:TCOON:003:1,2016-01-01T06:36:00Z,26.8015,-97.4706,0.0,7.7,350.0,9.0,'11111222,11111222,11111222' 
TCOON,ioos:station:TCOON:003:1,2016-01-01T06:42:00Z,26.8015,-97.4706,0.0,7.5,349.0,8.9,'11111222,11111222,11111222' 
TCOON,ioos:station:TCOON:003:1,2016-01-01T06:48:00Z,26.8015,-97.4706,0.0,7.0,355.0,7.9,'11111222,11111222,11111222' 
TCOON,ioos:station:TCOON:003:1,2016-01-01T06:54:00Z,26.8015,-97.4706,0.0,6.8,2.0,7.7,'11111222,11111222,11111222' 
TCOON,ioos:station:TCOON:003:1,2016-01-01T07:00:00Z,26.8015,-97.4706,0.0,7.5,3.0,8.9,'11111222,11111222,11111222' 
TCOON,ioos:station:TCOON:003:1,2016-01-01T07:06:00Z,26.8015,-97.4706,0.0,8.1,2.0,9.2,'11111222,11111222,11111222' 
TCOON,ioos:station:TCOON:003:1,2016-01-01T07:12:00Z,26.8015,-97.4706,0.0,7.5,5.0,9.4,'11111222,11111222,11111222' 
TCOON,ioos:station:TCOON:003:1,2016-01-01T07:18:00Z,26.8015,-97.4706,0.0,7.5,5.0,9.4,'1111122,1111122,1111122' 
TCOON,ioos:station:TCOON:003:1,2016-01-01T07:24:00Z,26.8015,-97.4706,0.0,8.1,4.0,9.4,'11111222,11111222,11111222' 
TCOON,ioos:station:TCOON:003:1,2016-01-01T07:30:00Z,26.8015,-97.4706,0.0,8.1,2.0,9.5,'11111222,11111222,11111222' 
TCOON,ioos:station:TCOON:003:1,2016-01-01T07:36:00Z,26.8015,-97.4706,0.0,7.6,346.0,9.6,'11111222,11111222,11111222' 
TCOON,ioos:station:TCOON:003:1,2016-01-01T07:42:00Z,26.8015,-97.4706,0.0,8.0,359.0,9.5,'11111222,11111222,11111222' 
TCOON,ioos:station:TCOON:003:1,2016-01-01T07:48:00Z,26.8015,-97.4706,0.0,7.7,358.0,9.0,'11111222,11111222,11111222' 
TCOON,ioos:station:TCOON:003:1,2016-01-01T07:54:00Z,26.8015,-97.4706,0.0,8.3,3.0,9.9,'11111222,11111222,11111222' 
TCOON,ioos:station:TCOON:003:1,2016-01-01T08:00:00Z,26.8015,-97.4706,0.0,9.2,4.0,10.4,'11111222,11111222,11111222' 
TCOON,ioos:station:TCOON:003:1,2016-01-01T08:06:00Z,26.8015,-97.4706,0.0,9.5,4.0,11.7,'11111222,11111222,11111222' 
TCOON,ioos:station:TCOON:003:1,2016-01-01T08:12:00Z,26.8015,-97.4706,0.0,9.7,3.0,11.1,'11111222,11111222,11111222' 
TCOON,ioos:station:TCOON:003:1,2016-01-01T08:18:00Z,26.8015,-97.4706,0.0,9.7,3.0,11.1,'1111122,1111122,1111122' 
TCOON,ioos:station:TCOON:003:1,2016-01-01T08:24:00Z,26.8015,-97.4706,0.0,8.0,3.0,9.6,'11111222,11111222,11111222' 
TCOON,ioos:station:TCOON:003:1,2016-01-01T08:36:00Z,26.8015,-97.4706,0.0,8.6,4.0,9.9,'11111222,11111222,11111222' 
TCOON,ioos:station:TCOON:003:1,2016-01-01T08:42:00Z,26.8015,-97.4706,0.0,8.2,8.0,9.8,'11111222,11111222,11111222' 
TCOON,ioos:station:TCOON:003:1,2016-01-01T08:48:00Z,26.8015,-97.4706,0.0,8.3,5.0,10.0,'11111222,11111222,11111222' 
TCOON,ioos:station:TCOON:003:1,2016-01-01T08:54:00Z,26.8015,-97.4706,0.0,8.8,352.0,10.2,'11111222,11111222,11111222' 
TCOON,ioos:station:TCOON:003:1,2016-01-01T09:00:00Z,26.8015,-97.4706,0.0,8.5,356.0,10.4,'11111222,11111222,11111222' 
TCOON,ioos:station:TCOON:003:1,2016-01-01T09:06:00Z,26.8015,-97.4706,0.0,8.4,359.0,10.0,'11111222,11111222,11111222' 
TCOON,ioos:station:TCOON:003:1,2016-01-01T09:12:00Z,26.8015,-97.4706,0.0,8.5,360.0,9.5,'11111222,11144222,11111222' 
TCOON,ioos:station:TCOON:003:1,2016-01-01T09:18:00Z,26.8015,-97.4706,0.0,8.0,355.0,9.4,'11111222,11111222,11111222' 
TCOON,ioos:station:TCOON:003:1,2016-01-01T09:24:00Z,26.8015,-97.4706,0.0,8.0,355.0,9.4,'1111122,1111122,1111122' 
TCOON,ioos:station:TCOON:003:1,2016-01-01T09:30:00Z,26.8015,-97.4706,0.0,8.2,0.0,10.0,'11111222,11111222,11111222' 
TCOON,ioos:station:TCOON:003:1,2016-01-01T09:36:00Z,26.8015,-97.4706,0.0,8.5,356.0,10.1,'11111222,11111222,11111222' 
TCOON,ioos:station:TCOON:003:1,2016-01-01T09:42:00Z,26.8015,-97.4706,0.0,9.7,353.0,10.8,'11111222,11111222,11111222' 
TCOON,ioos:station:TCOON:003:1,2016-01-01T09:48:00Z,26.8015,-97.4706,0.0,9.9,352.0,11.2,'11111222,11111222,11111222' 
TCOON,ioos:station:TCOON:003:1,2016-01-01T09:54:00Z,26.8015,-97.4706,0.0,10.1,351.0,11.2,'11111222,11111222,11111222' 
TCOON,ioos:station:TCOON:003:1,2016-01-01T10:00:00Z,26.8015,-97.4706,0.0,10.0,349.0,11.8,'11111222,11111222,11111222' 
TCOON,ioos:station:TCOON:003:1,2016-01-01T10:06:00Z,26.8015,-97.4706,0.0,9.7,351.0,11.2,'11111222,11111222,11111222' 
TCOON,ioos:station:TCOON:003:1,2016-01-01T10:12:00Z,26.8015,-97.4706,0.0,10.0,352.0,11.5,'11111222,11111222,11111222' 
TCOON,ioos:station:TCOON:003:1,2016-01-01T10:18:00Z,26.8015,-97.4706,0.0,10.0,352.0,11.5,'1111122,1111122,1111122' 
TCOON,ioos:station:TCOON:003:1,2016-01-01T10:24:00Z,26.8015,-97.4706,0.0,10.5,354.0,11.6,'11111222,11111222,11111222' 
TCOON,ioos:station:TCOON:003:1,2016-01-01T10:30:00Z,26.8015,-97.4706,0.0,10.8,351.0,12.9,'11111222,11111222,11111222' 
TCOON,ioos:station:TCOON:003:1,2016-01-01T10:36:00Z,26.8015,-97.4706,0.0,10.2,358.0,12.0,'11111222,11111222,11111222' 
TCOON,ioos:station:TCOON:003:1,2016-01-01T10:42:00Z,26.8015,-97.4706,0.0,10.4,355.0,12.5,'11111222,11111222,11111222' 
TCOON,ioos:station:TCOON:003:1,2016-01-01T10:48:00Z,26.8015,-97.4706,0.0,10.6,359.0,12.3,'11111222,11111222,11111222' 
TCOON,ioos:station:TCOON:003:1,2016-01-01T10:54:00Z,26.8015,-97.4706,0.0,10.0,359.0,12.7,'11111222,11111222,11111222' 
TCOON,ioos:station:TCOON:003:1,2016-01-01T11:00:00Z,26.8015,-97.4706,0.0,9.8,2.0,13.0,'11111222,11111222,11111222' 
TCOON,ioos:station:TCOON:003:1,2016-01-01T11:06:00Z,26.8015,-97.4706,0.0,10.4,2.0,11.8,'11111222,11111222,11111222' 
TCOON,ioos:station:TCOON:003:1,2016-01-01T11:12:00Z,26.8015,-97.4706,0.0,10.4,3.0,12.0,'11111222,11111222,11111222' 
TCOON,ioos:station:TCOON:003:1,2016-01-01T11:18:00Z,26.8015,-97.4706,0.0,10.4,3.0,12.0,'1111122,1111122,1111122' 
TCOON,ioos:station:TCOON:003:1,2016-01-01T11:24:00Z,26.8015,-97.4706,0.0,10.9,6.0,13.2,'11111222,11111222,11111222' 
TCOON,ioos:station:TCOON:003:1,2016-01-01T11:30:00Z,26.8015,-97.4706,0.0,10.5,6.0,14.1,'11111222,11111222,11111222' 
TCOON,ioos:station:TCOON:003:1,2016-01-01T11:36:00Z,26.8015,-97.4706,0.0,10.0,8.0,12.7,'11111222,11111222,11111222' 
TCOON,ioos:station:TCOON:003:1,2016-01-01T11:42:00Z,26.8015,-97.4706,0.0,9.1,10.0,11.6,'11111222,11111222,11111222' 
TCOON,ioos:station:TCOON:003:1,2016-01-01T11:48:00Z,26.8015,-97.4706,0.0,8.9,9.0,11.2,'11111222,11111222,11111222' 
TCOON,ioos:station:TCOON:003:1,2016-01-01T11:54:00Z,26.8015,-97.4706,0.0,10.0,4.0,11.9,'11111222,11111222,11111222' 
TCOON,ioos:station:TCOON:003:1,2016-01-01T12:00:00Z,26.8015,-97.4706,0.0,9.2,359.0,11.1,'11111222,11111222,11111222' 
TCOON,ioos:station:TCOON:003:1,2016-01-01T12:06:00Z,26.8015,-97.4706,0.0,8.9,356.0,10.2,'11111222,11111222,11111222' 
TCOON,ioos:station:TCOON:003:1,2016-01-01T12:12:00Z,26.8015,-97.4706,0.0,9.4,357.0,10.5,'11111222,11111222,11111222' 
TCOON,ioos:station:TCOON:003:1,2016-01-01T12:18:00Z,26.8015,-97.4706,0.0,9.4,357.0,10.5,'1111122,1111122,1111122' 
TCOON,ioos:station:TCOON:003:1,2016-01-01T12:24:00Z,26.8015,-97.4706,0.0,8.8,354.0,10.4,'11111222,11111222,11111222' 
TCOON,ioos:station:TCOON:003:1,2016-01-01T12:30:00Z,26.8015,-97.4706,0.0,8.9,353.0,9.9,'11111222,11111222,11111222' 
TCOON,ioos:station:TCOON:003:1,2016-01-01T12:36:00Z,26.8015,-97.4706,0.0,8.5,354.0,10.5,'11111222,11111222,11111222' 
TCOON,ioos:station:TCOON:003:1,2016-01-01T12:42:00Z,26.8015,-97.4706,0.0,9.5,358.0,10.8,'11111222,11111222,11111222' 
TCOON,ioos:station:TCOON:003:1,2016-01-01T12:48:00Z,26.8015,-97.4706,0.0,8.8,353.0,10.3,'11111222,11111222,11111222' 
TCOON,ioos:station:TCOON:003:1,2016-01-01T12:54:00Z,26.8015,-97.4706,0.0,9.5,359.0,10.8,'11111222,11111222,11111222' 
TCOON,ioos:station:TCOON:003:1,2016-01-01T13:00:00Z,26.8015,-97.4706,0.0,9.5,355.0,11.1,'11111222,11111222,11111222' 
TCOON,ioos:station:TCOON:003:1,2016-01-01T13:06:00Z,26.8015,-97.4706,0.0,9.5,359.0,10.7,'11111222,11111222,11111222' 
TCOON,ioos:station:TCOON:003:1,2016-01-01T13:12:00Z,26.8015,-97.4706,0.0,8.7,351.0,11.6,'11111222,11111222,11111222' 
TCOON,ioos:station:TCOON:003:1,2016-01-01T13:18:00Z,26.8015,-97.4706,0.0,8.7,351.0,11.6,'1111122,1111122,1111122' 
TCOON,ioos:station:TCOON:003:1,2016-01-01T13:24:00Z,26.8015,-97.4706,0.0,10.1,351.0,11.4,'11111222,11111222,11111222' 
TCOON,ioos:station:TCOON:003:1,2016-01-01T13:30:00Z,26.8015,-97.4706,0.0,10.2,355.0,11.8,'11111222,11111222,11111222' 
TCOON,ioos:station:TCOON:003:1,2016-01-01T13:36:00Z,26.8015,-97.4706,0.0,10.0,355.0,11.6,'11111222,11111222,11111222' 
TCOON,ioos:station:TCOON:003:1,2016-01-01T13:42:00Z,26.8015,-97.4706,0.0,9.8,355.0,11.5,'11111222,11111222,11111222' 
TCOON,ioos:station:TCOON:003:1,2016-01-01T13:48:00Z,26.8015,-97.4706,0.0,10.1,354.0,11.9,'11111222,11111222,11111222' 
TCOON,ioos:station:TCOON:003:1,2016-01-01T13:54:00Z,26.8015,-97.4706,0.0,8.8,348.0,11.2,'11111222,11111222,11111222' 
TCOON,ioos:station:TCOON:003:1,2016-01-01T14:00:00Z,26.8015,-97.4706,0.0,9.1,346.0,10.7,'11111222,11111222,11111222' 
TCOON,ioos:station:TCOON:003:1,2016-01-01T14:06:00Z,26.8015,-97.4706,0.0,9.5,348.0,11.4,'11111222,11111222,11111222' 
TCOON,ioos:station:TCOON:003:1,2016-01-01T14:12:00Z,26.8015,-97.4706,0.0,9.6,352.0,11.6,'11111222,11111222,11111222' 
TCOON,ioos:station:TCOON:003:1,2016-01-01T14:18:00Z,26.8015,-97.4706,0.0,9.6,352.0,11.6,'1111122,1111122,1111122' 
TCOON,ioos:station:TCOON:003:1,2016-01-01T14:24:00Z,26.8015,-97.4706,0.0,9.8,353.0,11.8,'11111222,11111222,11111222' 
TCOON,ioos:station:TCOON:003:1,2016-01-01T14:30:00Z,26.8015,-97.4706,0.0,10.2,1.0,12.1,'11111222,11111222,11111222' 
TCOON,ioos:station:TCOON:003:1,2016-01-01T14:36:00Z,26.8015,-97.4706,0.0,9.3,0.0,11.8,'11111222,11111222,11111222' 
TCOON,ioos:station:TCOON:003:1,2016-01-01T14:42:00Z,26.8015,-97.4706,0.0,9.8,355.0,10.9,'11111222,11111222,11111222' 
TCOON,ioos:station:TCOON:003:1,2016-01-01T14:48:00Z,26.8015,-97.4706,0.0,9.8,356.0,10.6,'11111222,11111222,11111222' 
TCOON,ioos:station:TCOON:003:1,2016-01-01T14:54:00Z,26.8015,-97.4706,0.0,9.6,353.0,11.1,'11111222,11111222,11111222' 
TCOON,ioos:station:TCOON:003:1,2016-01-01T15:00:00Z,26.8015,-97.4706,0.0,9.5,357.0,11.2,'11111222,11111222,11111222' 
TCOON,ioos:station:TCOON:003:1,2016-01-01T15:06:00Z,26.8015,-97.4706,0.0,9.2,350.0,11.3,'11111222,11111222,11111222' 
TCOON,ioos:station:TCOON:003:1,2016-01-01T15:12:00Z,26.8015,-97.4706,0.0,10.4,346.0,12.0,'11111222,11111222,11111222' 
TCOON,ioos:station:TCOON:003:1,2016-01-01T15:18:00Z,26.8015,-97.4706,0.0,10.4,346.0,12.0,'1111122,1111122,1111122' 
TCOON,ioos:station:TCOON:003:1,2016-01-01T15:24:00Z,26.8015,-97.4706,0.0,10.1,342.0,11.8,'11111222,11111222,11111222' 
TCOON,ioos:station:TCOON:003:1,2016-01-01T15:30:00Z,26.8015,-97.4706,0.0,9.3,344.0,11.3,'11111222,11111222,11111222' 
TCOON,ioos:station:TCOON:003:1,2016-01-01T15:36:00Z,26.8015,-97.4706,0.0,10.5,342.0,12.3,'11111222,11111222,11111222' 
TCOON,ioos:station:TCOON:003:1,2016-01-01T15:42:00Z,26.8015,-97.4706,0.0,10.2,344.0,12.7,'11111222,11111222,11111222' 
TCOON,ioos:station:TCOON:003:1,2016-01-01T15:48:00Z,26.8015,-97.4706,0.0,10.0,345.0,12.3,'11111222,11111222,11111222' 
TCOON,ioos:station:TCOON:003:1,2016-01-01T15:54:00Z,26.8015,-97.4706,0.0,10.9,348.0,12.3,'11111222,11111222,11111222' 
TCOON,ioos:station:TCOON:003:1,2016-01-01T16:00:00Z,26.8015,-97.4706,0.0,9.9,350.0,11.6,'11111222,11111222,11111222' 
TCOON,ioos:station:TCOON:003:1,2016-01-01T16:06:00Z,26.8015,-97.4706,0.0,10.5,350.0,12.7,'11111222,11111222,11111222' 
TCOON,ioos:station:TCOON:003:1,2016-01-01T16:12:00Z,26.8015,-97.4706,0.0,9.9,342.0,12.2,'11111222,11111222,11111222' 
TCOON,ioos:station:TCOON:003:1,2016-01-01T16:18:00Z,26.8015,-97.4706,0.0,9.9,342.0,12.2,'1111122,1111122,1111122' 
TCOON,ioos:station:TCOON:003:1,2016-01-01T16:24:00Z,26.8015,-97.4706,0.0,10.0,345.0,11.3,'11111222,11111222,11111222' 
TCOON,ioos:station:TCOON:003:1,2016-01-01T16:30:00Z,26.8015,-97.4706,0.0,10.1,343.0,11.8,'11111222,11111222,11111222' 
TCOON,ioos:station:TCOON:003:1,2016-01-01T16:36:00Z,26.8015,-97.4706,0.0,9.4,343.0,12.4,'11111222,11111222,11111222' 
TCOON,ioos:station:TCOON:003:1,2016-01-01T16:42:00Z,26.8015,-97.4706,0.0,11.1,344.0,12.8,'11111222,11111222,11111222' 
TCOON,ioos:station:TCOON:003:1,2016-01-01T16:48:00Z,26.8015,-97.4706,0.0,10.0,347.0,12.8,'11111222,11111222,11111222' 
TCOON,ioos:station:TCOON:003:1,2016-01-01T16:54:00Z,26.8015,-97.4706,0.0,10.7,347.0,12.4,'11111222,11111222,11111222' 
TCOON,ioos:station:TCOON:003:1,2016-01-01T17:00:00Z,26.8015,-97.4706,0.0,11.1,349.0,12.3,'11111222,11111222,11111222' 
TCOON,ioos:station:TCOON:003:1,2016-01-01T17:06:00Z,26.8015,-97.4706,0.0,10.8,345.0,12.4,'11111222,11111222,11111222' 
TCOON,ioos:station:TCOON:003:1,2016-01-01T17:12:00Z,26.8015,-97.4706,0.0,11.2,346.0,13.1,'11111222,11111222,11111222' 
TCOON,ioos:station:TCOON:003:1,2016-01-01T17:18:00Z,26.8015,-97.4706,0.0,11.2,346.0,13.1,'1111122,1111122,1111122' 
TCOON,ioos:station:TCOON:003:1,2016-01-01T17:24:00Z,26.8015,-97.4706,0.0,11.2,346.0,13.3,'11111222,11111222,11111222' 
TCOON,ioos:station:TCOON:003:1,2016-01-01T17:30:00Z,26.8015,-97.4706,0.0,10.6,349.0,13.7,'11111222,11111222,11111222' 
TCOON,ioos:station:TCOON:003:1,2016-01-01T17:36:00Z,26.8015,-97.4706,0.0,9.3,340.0,13.1,'11111222,11111222,11111222' 
TCOON,ioos:station:TCOON:003:1,2016-01-01T17:42:00Z,26.8015,-97.4706,0.0,9.5,344.0,11.8,'11111222,11111222,11111222' 
TCOON,ioos:station:TCOON:003:1,2016-01-01T17:48:00Z,26.8015,-97.4706,0.0,9.9,345.0,11.8,'11111222,11111222,11111222' 
TCOON,ioos:station:TCOON:003:1,2016-01-01T17:54:00Z,26.8015,-97.4706,0.0,9.7,346.0,12.2,'11111222,11111222,11111222' 
TCOON,ioos:station:TCOON:003:1,2016-01-01T18:00:00Z,26.8015,-97.4706,0.0,10.5,348.0,12.0,'11111222,11111222,11111222' 
TCOON,ioos:station:TCOON:003:1,2016-01-01T18:06:00Z,26.8015,-97.4706,0.0,10.3,350.0,13.0,'11111222,11111222,11111222' 
TCOON,ioos:station:TCOON:003:1,2016-01-01T18:12:00Z,26.8015,-97.4706,0.0,11.3,351.0,12.6,'11111222,11111222,11111222' 
TCOON,ioos:station:TCOON:003:1,2016-01-01T18:18:00Z,26.8015,-97.4706,0.0,11.3,351.0,12.6,'1111122,1111122,1111122' 
TCOON,ioos:station:TCOON:003:1,2016-01-01T18:24:00Z,26.8015,-97.4706,0.0,10.4,349.0,12.7,'11111222,11111222,11111222' 
TCOON,ioos:station:TCOON:003:1,2016-01-01T18:30:00Z,26.8015,-97.4706,0.0,10.1,352.0,13.1,'11111222,11111222,11111222' 
TCOON,ioos:station:TCOON:003:1,2016-01-01T18:36:00Z,26.8015,-97.4706,0.0,10.8,347.0,12.2,'11111222,11111222,11111222' 
TCOON,ioos:station:TCOON:003:1,2016-01-01T18:42:00Z,26.8015,-97.4706,0.0,11.0,346.0,11.9,'11111222,11111222,11111222' 
TCOON,ioos:station:TCOON:003:1,2016-01-01T18:48:00Z,26.8015,-97.4706,0.0,10.5,345.0,12.9,'11111222,11111222,11111222' 
TCOON,ioos:station:TCOON:003:1,2016-01-01T18:54:00Z,26.8015,-97.4706,0.0,10.2,342.0,13.0,'11111222,11111222,11111222' 
TCOON,ioos:station:TCOON:003:1,2016-01-01T19:00:00Z,26.8015,-97.4706,0.0,10.8,342.0,11.6,'11111222,11111222,11111222' 
TCOON,ioos:station:TCOON:003:1,2016-01-01T19:06:00Z,26.8015,-97.4706,0.0,9.6,343.0,11.3,'11111222,11111222,11111222' 
TCOON,ioos:station:TCOON:003:1,2016-01-01T19:12:00Z,26.8015,-97.4706,0.0,9.8,347.0,10.8,'11111222,11111222,11111222' 
TCOON,ioos:station:TCOON:003:1,2016-01-01T19:18:00Z,26.8015,-97.4706,0.0,10.2,349.0,11.3,'11111222,11111222,11111222' 
TCOON,ioos:station:TCOON:003:1,2016-01-01T19:24:00Z,26.8015,-97.4706,0.0,10.0,344.0,11.2,'11111222,11111222,11111222' 
TCOON,ioos:station:TCOON:003:1,2016-01-01T19:30:00Z,26.8015,-97.4706,0.0,9.6,343.0,11.3,'11111222,11111222,11111222' 
TCOON,ioos:station:TCOON:003:1,2016-01-01T19:36:00Z,26.8015,-97.4706,0.0,9.8,339.0,11.5,'11111222,11111222,11111222' 
TCOON,ioos:station:TCOON:003:1,2016-01-01T19:42:00Z,26.8015,-97.4706,0.0,9.4,345.0,11.0,'11111222,11111222,11111222' 
TCOON,ioos:station:TCOON:003:1,2016-01-01T19:48:00Z,26.8015,-97.4706,0.0,9.7,341.0,11.2,'11111222,11111222,11111222' 
TCOON,ioos:station:TCOON:003:1,2016-01-01T19:54:00Z,26.8015,-97.4706,0.0,9.9,341.0,11.8,'11111222,11111222,11111222' 
TCOON,ioos:station:TCOON:003:1,2016-01-01T20:00:00Z,26.8015,-97.4706,0.0,9.7,341.0,11.5,'11111222,11111222,11111222' 
TCOON,ioos:station:TCOON:003:1,2016-01-01T20:06:00Z,26.8015,-97.4706,0.0,9.8,346.0,11.2,'11111222,11111222,11111222' 
TCOON,ioos:station:TCOON:003:1,2016-01-01T20:12:00Z,26.8015,-97.4706,0.0,9.4,347.0,11.5,'11111222,11111222,11111222' 
TCOON,ioos:station:TCOON:003:1,2016-01-01T20:18:00Z,26.8015,-97.4706,0.0,9.4,351.0,11.4,'11111222,11111222,11111222' 